Simultaneous Nadir Overpasses (SNOs) Predictions

Prediction of SNOs between GOES-16 and METOP-C Satellite Orbit:

Table of predicted SNOs for the next 14.0 days since TLE Epoch: 12/25/2022
Index Date Time (GOES-16) GOES-16 Lat,Lon METOP-C Lat,Lon Distance(km) Time Diff (sec)
1 12/26/2022 02:36:21 0.04, -75.19 -0.18, -76.10 104.27 80
2 12/27/2022 02:13:01 0.04, -75.20 0.93, -71.11 465.61 80
3 12/28/2022 14:34:33 -0.03, -75.22 0.06, -75.67 50.88 80
4 12/31/2022 02:32:53 0.03, -75.24 0.01, -75.26 2.91 80
5 01/02/2023 14:28:25 -0.03, -75.30 -0.10, -74.82 53.11 80
6 01/04/2023 02:50:05 0.02, -75.31 -0.90, -79.42 468.69 80
7 01/05/2023 02:26:46 0.03, -75.33 0.23, -74.43 102.55 80
8 01/06/2023 14:48:17 -0.03, -75.37 0.78, -78.99 412.00 80
9 01/07/2023 14:24:58 -0.03, -75.39 -0.35, -73.99 159.75 80
